[[{"header":{"parameterUnit":"m.s-1","parameterCategory":1,"la1":30.2991,"la2":30.254,"lo1":-89.0895,"lo2":-89.0444,"dy":0.0017,"dx":0.0017,"nx":28,"ny":28,"refTime":"2024-06-07T09:00:00:Z","depth":0,"parameterNumber":2,"parameterNumberName":"U-component_of_WINDS"},"data":[0,0,0,0,0,0,0,0,0,0,0,0,0,0,0,0,0,0,0,0,0,0,0,0,0,0,0,0,0,0,0,0,0,0,0,0,0,0,0,0,0,0,0,0,0,0,0,0,0,0,0,0,0,0,0,0,0,0,1.2989,1.2992,0,1.3215,1.3218,1.322,1.3271,1.327,1.3268,1.3267,1.3503,1.3511,1.3519,0,0,0,0,0,0,0,0,0,0,0,0,0,1.2607,1.2614,1.2989,1.2992,1.2995,1.3215,1.3218,1.3221,1.3272,1.327,1.3268,1.3266,1.3501,1.351,1.3519,0,0,0,0,0,0,0,0,0,0,0,0,0,1.2797,1.2616,1.2989,1.3046,1.3054,1.3214,1.3218,1.3222,1.3272,1.327,1.3267,1.3265,1.3498,1.3509,1.3521,1.3641,0,0,1.3556,1.3561,0,0,0,0,0,0,0,0,1.2786,1.2811,1.3035,1.3043,1.3051,1.3212,1.317,1.3362,1.3273,1.3189,1.3267,1.3264,1.3409,1.3428,1.3476,1.3652,1.3662,1.3557,1.3564,1.3569,1.3573,0,0,0,0,0,0,0,1.2773,1.2801,1.3079,1.3038,1.3048,1.3063,1.3087,1.3206,1.331,1.3197,1.3201,1.3227,1.3413,1.3464,1.3481,1.3665,1.3557,1.3567,1.3575,1.3579,1.3952,1.3954,0,0,0,0,0,0,1.2749,1.279,1.3071,1.3085,1.291,1.3072,1.3099,1.3163,1.3309,1.3329,1.3228,1.3228,1.3445,1.3468,1.349,1.364,1.3569,1.358,1.3587,1.3949,1.3952,1.3955,0,0,0,0,0,0,1.274,1.2773,1.3062,1.2939,1.2977,1.3081,1.3153,1.3169,1.322,1.3333,1.3352,1.3261,1.3444,1.3474,1.3602,1.3649,1.3586,1.3596,1.3945,1.395,1.3954,1.3941,0,0,0,0,0,0,1.2729,1.277,1.2816,1.294,1.2983,1.317,1.3156,1.3175,1.324,1.3241,1.3369,1.3388,1.3445,1.3585,1.3614,1.3664,1.3605,1.3942,1.3947,1.3953,1.3938,1.3944,1.395,0,0,0,0,0,1.2715,1.2804,1.2818,1.2851,1.3042,1.3172,1.3197,1.3259,1.3243,1.3291,1.3363,1.3384,1.3639,1.3597,1.3631,1.3685,1.3939,1.3946,1.3952,1.3935,1.3943,1.395,0,0,0,0,0,0,1.2685,1.2822,1.2838,1.2969,1.3058,1.318,1.3242,1.3266,1.3363,1.3361,1.3436,1.3464,1.3589,1.365,1.3601,1.3809,1.3789,1.3802,1.3764,1.3773,1.3779,1.3762,1.3615,0,0,0,0,0,1.2693,1.2786,1.2901,1.3006,1.3049,1.3138,1.3197,1.3237,1.3333,1.3372,1.3453,1.3547,1.3649,1.3714,1.3814,1.3947,1.3976,1.4001,1.4007,1.4011,1.4022,1.4097,1.411,1.3977,1.3977,1.3977,0,0,1.2712,1.2798,1.2852,1.3002,1.3075,1.3171,1.3169,1.3271,1.3343,1.3388,1.3514,1.3577,1.3687,1.3818,1.388,1.3873,1.4065,1.4019,1.4022,1.4031,1.4105,1.4118,1.4129,1.3981,1.398,1.398,0,0,1.2795,1.2869,1.2964,1.3038,1.3149,1.3207,1.3229,1.3348,1.3391,1.3518,1.3554,1.3642,1.3815,1.3892,1.3953,1.4064,1.4088,1.4095,1.4127,1.42,1.421,1.422,1.426,1.4273,1.4105,1.4105,1.4105,0,1.2805,1.2949,1.3011,1.311,1.3175,1.3218,1.3316,1.3385,1.3523,1.3568,1.3557,1.3775,1.3852,1.4002,1.4029,1.4077,1.4107,1.4081,1.4203,1.4214,1.4224,1.4263,1.4277,1.4106,1.4106,1.4105,1.4105,0,1.2955,1.3054,1.3118,1.3249,1.3321,1.3419,1.3497,1.3564,1.3597,1.3656,1.3786,1.388,1.3999,1.4038,1.4072,1.4193,1.4185,1.4188,1.4169,1.4235,1.4273,1.4289,1.4106,1.4106,1.4106,1.4106,0,0,1.3027,1.3189,1.3211,1.3271,1.3396,1.3475,1.3575,1.369,1.3745,1.3839,1.3926,1.4071,1.4074,1.4144,1.4188,1.4252,1.4334,1.4247,1.4251,1.426,1.4473,1.447,1.4486,1.4349,1.4353,1.4355,1.4464,0,1.3125,1.3304,1.3362,1.3512,1.3604,1.3646,1.3734,1.3821,1.3879,1.3967,1.4033,1.4134,1.4131,1.4173,1.4238,1.431,1.4378,1.4303,1.4433,1.4436,1.4404,1.4506,1.4504,1.4602,1.4479,1.4482,1.4484,0,1.3264,1.3358,1.3516,1.3629,1.367,1.3747,1.3857,1.394,1.404,1.4079,1.4156,1.4194,1.4302,1.4276,1.4427,1.4375,1.4431,1.4475,1.448,1.4495,1.4464,1.4525,1.4635,1.465,1.4508,1.4506,1.4504,0,1.33,1.3467,1.3582,1.3632,1.3767,1.382,1.3879,1.3976,1.4042,1.4138,1.4181,1.4289,1.4349,1.4433,1.45,1.4475,1.4645,1.4625,1.4681,1.4679,1.4715,1.4712,1.4837,1.4751,1.475,1.475,1.475,0,1.3405,1.35,1.36,1.3672,1.378,1.3847,1.3952,1.4014,1.41,1.4185,1.4228,1.4308,1.4391,1.4482,1.4536,1.4653,1.4679,1.4714,1.4727,1.4711,1.4706,1.4749,1.4744,1.4754,1.4753,1.4752,1.4752,0,1.3464,1.3535,1.3664,1.378,1.3812,1.3886,1.3986,1.4058,1.4117,1.4225,1.4254,1.4348,1.4457,1.4532,1.4673,1.4709,1.4835,1.4847,1.4801,1.4807,1.4859,1.4854,1.5016,1.5041,1.4937,1.4938,1.4939,0,1.3526,1.36,1.3723,1.3782,1.384,1.3935,1.4001,1.407,1.4138,1.4256,1.4314,1.4425,1.4518,1.4691,1.4773,1.4881,1.4896,1.4946,1.4913,1.4894,1.4898,1.4893,1.4901,1.4951,1.4952,1.4952,1.4953,0,1.3629,1.366,1.3752,1.3857,1.3934,1.402,1.4107,1.4154,1.4238,1.4312,1.4422,1.4494,1.4637,1.4747,1.4863,1.4925,1.4954,1.4962,1.4981,1.4965,1.4935,1.4953,1.4815,1.4959,1.4958,1.4958,1.4957,1.4957,1.3692,1.376,1.3856,1.3958,1.403,1.411,1.4183,1.425,1.4343,1.4463,1.4498,1.4614,1.4713,1.487,1.4934,1.5027,1.5023,1.505,1.5057,1.5063,1.5063,1.492,1.5048,1.5048,1.5048,1.5048,1.5048,0,1.3798,1.3861,1.3954,1.4073,1.4153,1.417,1.4267,1.4334,1.4434,1.4522,1.4612,1.474,1.4847,1.4937,1.5048,1.5105,1.5121,1.5132,1.5129,1.5143,1.506,1.5032,1.5117,1.5117,1.5117,1.5117,1.5117,1.5117,1.3862,1.3977,1.4019,1.417,1.4235,1.4346,1.44,1.4474,1.4545,1.4685,1.4773,1.483,1.492,1.5038,1.5137,1.5161,1.5201,1.5209,1.5236,1.5157,1.5149,1.5141,1.5116,1.5217,1.5217,1.5311,1.5312,1.5313]},{"header":{"parameterUnit":"m.s-1","parameterCategory":1,"la1":30.2991,"la2":30.254,"lo1":-89.0895,"lo2":-89.0444,"dy":0.0017,"dx":0.0017,"nx":28,"ny":28,"refTime":"2024-06-07T09:00:00:Z","depth":0,"parameterNumber":3,"parameterNumberName":"V-component_of_WINDS"},"data":[0,0,0,0,0,0,0,0,0,0,0,0,0,0,0,0,0,0,0,0,0,0,0,0,0,0,0,0,0,0,0,0,0,0,0,0,0,0,0,0,0,0,0,0,0,0,0,0,0,0,0,0,0,0,0,0,0,0,0.6795,0.6796,0,0.6883,0.6884,0.6885,0.6839,0.6836,0.6834,0.6832,0.6921,0.6925,0.693,0,0,0,0,0,0,0,0,0,0,0,0,0,0.6585,0.6589,0.6795,0.6796,0.6797,0.6883,0.6884,0.6885,0.6839,0.6836,0.6833,0.6831,0.6919,0.6925,0.693,0,0,0,0,0,0,0,0,0,0,0,0,0,0.6675,0.659,0.6795,0.6784,0.6784,0.6883,0.6884,0.6885,0.684,0.6836,0.6832,0.6829,0.6917,0.6924,0.6931,0.7044,0,0,0.6952,0.6955,0,0,0,0,0,0,0,0,0.667,0.6683,0.6785,0.6785,0.6785,0.6846,0.6842,0.6939,0.684,0.6819,0.6832,0.6827,0.6899,0.6907,0.6931,0.7048,0.7052,0.6952,0.6957,0.696,0.6961,0,0,0,0,0,0,0,0.6664,0.6678,0.683,0.6786,0.6787,0.6775,0.6784,0.6861,0.6877,0.682,0.6817,0.6828,0.6898,0.6925,0.6933,0.7053,0.6952,0.6958,0.6963,0.6965,0.7266,0.727,0,0,0,0,0,0,0.6658,0.6674,0.6827,0.6832,0.6718,0.6781,0.6791,0.683,0.6876,0.688,0.6831,0.6826,0.6915,0.6925,0.6936,0.7071,0.696,0.6966,0.697,0.7262,0.7267,0.7271,0,0,0,0,0,0,0.6654,0.6672,0.6823,0.6752,0.677,0.6789,0.6833,0.6834,0.686,0.6885,0.6887,0.6855,0.6912,0.6926,0.7017,0.7073,0.6969,0.6975,0.7257,0.7263,0.7269,0.7342,0,0,0,0,0,0,0.6648,0.6671,0.6715,0.6754,0.6774,0.6904,0.6836,0.6838,0.6872,0.6866,0.6908,0.6912,0.6911,0.7007,0.7024,0.7081,0.6981,0.7253,0.726,0.7267,0.7335,0.735,0.7363,0,0,0,0,0,0.6641,0.6732,0.6717,0.6736,0.683,0.6908,0.692,0.6917,0.6877,0.6921,0.6936,0.691,0.7064,0.7017,0.7035,0.7095,0.7249,0.7258,0.7266,0.7329,0.7347,0.7362,0,0,0,0,0,0,0.67,0.6737,0.6721,0.6828,0.6865,0.69,0.6955,0.6936,0.6985,0.6978,0.6972,0.6981,0.7076,0.7094,0.7041,0.7206,0.715,0.7163,0.7191,0.7209,0.7222,0.7217,0.6986,0,0,0,0,0,0.6725,0.6786,0.6815,0.6906,0.6926,0.6937,0.6971,0.6966,0.7004,0.7019,0.7041,0.7079,0.7135,0.7173,0.7226,0.7337,0.7345,0.7387,0.74,0.7412,0.7423,0.7482,0.7501,0.73,0.7299,0.7299,0,0,0.6779,0.6806,0.6845,0.6919,0.6947,0.7009,0.6951,0.7019,0.7065,0.7029,0.7117,0.7134,0.7175,0.7276,0.7322,0.7295,0.7481,0.7423,0.7432,0.7437,0.7493,0.7512,0.7529,0.7305,0.7304,0.7303,0,0,0.6908,0.6935,0.7014,0.7043,0.7086,0.7093,0.7112,0.7149,0.7159,0.7247,0.7221,0.7274,0.7372,0.7403,0.7431,0.7569,0.7547,0.7586,0.766,0.7717,0.7733,0.7747,0.7797,0.7815,0.7598,0.7598,0.7598,0,0.6969,0.7063,0.7057,0.7128,0.716,0.713,0.7209,0.7237,0.7296,0.7319,0.7287,0.7408,0.7434,0.7541,0.7575,0.7599,0.762,0.7583,0.7731,0.7745,0.7758,0.7806,0.7824,0.7602,0.7602,0.7601,0.7601,0,0.7135,0.72,0.7259,0.7316,0.7355,0.743,0.7434,0.7474,0.7465,0.7475,0.7563,0.7592,0.7651,0.7676,0.7667,0.7782,0.7763,0.7732,0.7676,0.7782,0.7827,0.7845,0.7609,0.7607,0.7606,0.7605,0,0,0.7307,0.7358,0.738,0.7405,0.7449,0.7499,0.7571,0.7629,0.7663,0.7703,0.7764,0.7846,0.7817,0.7849,0.7843,0.7893,0.8001,0.7855,0.7856,0.7882,0.8129,0.8153,0.8174,0.7985,0.7989,0.7992,0.8125,0,0.7439,0.7567,0.7563,0.7682,0.7741,0.7712,0.7775,0.7808,0.7819,0.787,0.7881,0.794,0.7896,0.7915,0.7964,0.7978,0.805,0.7968,0.8042,0.8044,0.8034,0.8197,0.8224,0.8349,0.8142,0.8145,0.8148,0,0.7612,0.7658,0.7783,0.7817,0.7842,0.7899,0.7951,0.8,0.8037,0.804,0.8075,0.8061,0.8133,0.8073,0.8173,0.8116,0.8146,0.8157,0.8162,0.817,0.8104,0.8211,0.8389,0.8408,0.8175,0.8172,0.8171,0,0.7725,0.7818,0.7905,0.7927,0.7969,0.801,0.8029,0.8062,0.8096,0.8141,0.8163,0.8215,0.8244,0.8284,0.8283,0.824,0.8384,0.8324,0.8389,0.8389,0.8422,0.8421,0.8609,0.8439,0.8439,0.8438,0.8438,0,0.7875,0.7952,0.7956,0.801,0.8095,0.8089,0.8173,0.8188,0.8218,0.8273,0.825,0.8302,0.8297,0.8349,0.8349,0.8431,0.8444,0.8449,0.8448,0.8452,0.8452,0.8473,0.8465,0.8443,0.8442,0.8441,0.8441,0,0.8017,0.8022,0.8115,0.8147,0.8156,0.8218,0.8245,0.8295,0.8302,0.8372,0.8388,0.84,0.846,0.8463,0.8532,0.8531,0.8632,0.8621,0.862,0.8618,0.8683,0.8678,0.8893,0.8921,0.8732,0.8733,0.8735,0,0.8113,0.8172,0.8209,0.8245,0.8267,0.8324,0.8358,0.8353,0.839,0.8435,0.848,0.8538,0.8584,0.8681,0.8695,0.8748,0.8738,0.881,0.8746,0.8748,0.8741,0.8738,0.8744,0.8823,0.8825,0.8827,0.8828,0,0.8282,0.8282,0.8333,0.8385,0.8427,0.8468,0.8505,0.8535,0.8535,0.8577,0.8638,0.8674,0.8744,0.8802,0.8852,0.8871,0.885,0.8848,0.8866,0.8871,0.8869,0.8872,0.8655,0.8844,0.8842,0.8841,0.884,0.884,0.8405,0.8456,0.849,0.8548,0.8575,0.8611,0.8659,0.8672,0.8723,0.8781,0.8774,0.8842,0.8875,0.8941,0.8963,0.9016,0.8991,0.9017,0.9024,0.9031,0.9038,0.8859,0.9025,0.9024,0.9024,0.9023,0.9023,0,0.8574,0.8594,0.8647,0.8701,0.8745,0.8721,0.8761,0.88,0.886,0.8893,0.8939,0.9008,0.9063,0.9081,0.9135,0.9173,0.9165,0.9187,0.9185,0.919,0.9057,0.9036,0.9193,0.9193,0.9193,0.9193,0.9193,0.9193,0.8668,0.8752,0.8756,0.8853,0.8872,0.894,0.8964,0.8996,0.9023,0.9102,0.9148,0.9159,0.9185,0.924,0.9289,0.9293,0.9314,0.9341,0.9341,0.9216,0.9199,0.9183,0.9164,0.9345,0.9345,0.947,0.9471,0.9472]}]]